Flag for Slovenia Weather past 2 weeks in Celje, Slovenia

Now
65 °F

Mild.


Feels Like: 65 °F
Forecast: 62 / 78 °F
Wind: 1 mph from Southwest

Location: Celje

Current Time: Jul 30, 2014 at 5:50:49 PM

Latest Report: Jul 30, 2014 at 5:00 PM


Visibility: N/A

Pressure: 29.75 "Hg

Humidity: 94%

Dew point: 63 °F

Location of CeljeLocation

Historic Weather in Celje — Graph

°F

Celje temperature yesterday

Maximum temperature yesterday: 77 °F (at 12:00 PM)
Minimum temperature yesterday: 64 °F (at 3:00 AM)
Average temperature yesterday: 70 °F

Past Weeks' High & Low Weather Summary

 TemperatureHumidityPressure
High89 °F (Jul 20, 3:00 PM)98% (Jul 16, 6:00 AM)30.11 "Hg (Jul 16, 6:00 AM)
Low55 °F (Jul 24, 6:00 AM)41% (Jul 23, 7:00 PM)29.71 "Hg (Jul 30, 7:00 AM)
Average69 °F79%29.92 "Hg
* Reported Jul 15 4:00 PM — Jul 30 4:00 PM, Celje, Weather by CustomWeather, © 2014

Note: Actual official high and low records may vary slightly from our data, if they occured in-between our weather recording intervals... More about our weather records

Advertising

Celje weather history for previous 24 hours

 ConditionsComfort  
Time TempWeatherWind HumidityBarometerVisibility
4:00 PM
Jul 30
67 °FMild.2 mph90%29.74 "HgN/A
3:00 PM70 °FThunderstorms. Overcast.2 mph77%29.72 "Hg16 mi
2:00 PM71 °FOvercast.3 mph74%29.73 "Hg16 mi
1:00 PM68 °FMild.2 mph80%29.75 "HgN/A
12:00 PM66 °FMild.3 mph87%29.75 "HgN/A
11:00 AM65 °FMild.1 mph95%29.75 "HgN/A
10:00 AM66 °FMild.1 mph91%29.75 "HgN/A
9:00 AM65 °FOvercast.1 mph95%29.73 "Hg5 mi
8:00 AM65 °FMild.1 mph96%29.72 "HgN/A
7:00 AM64 °FMild.1 mph96%29.71 "HgN/A
6:00 AM64 °FMild.2 mph98%29.72 "HgN/A
5:00 AM63 °FMild.1 mph98%29.73 "HgN/A
4:00 AM63 °FMild.1 mph97%29.73 "HgN/A
3:00 AM64 °FMild.1 mph97%29.74 "HgN/A
2:00 AM64 °FMild.1 mph97%29.77 "HgN/A
1:00 AM64 °FMild.2 mph95%29.77 "HgN/A
12:00 AM65 °FMild.1 mph96%29.77 "HgN/A
11:00 PM
Jul 29
67 °FMild.1 mph93%29.78 "HgN/A
10:00 PM66 °FMild.1 mph94%29.76 "HgN/A
9:00 PM67 °FMild.No wind90%29.76 "HgN/A
8:00 PM72 °FPartly sunny.2 mph77%29.75 "Hg22 mi
7:00 PM77 °FMild.1 mph65%29.75 "HgN/A
6:00 PM76 °FMild.1 mph66%29.75 "HgN/A
5:00 PM75 °FMild.2 mph68%29.76 "HgN/A
Weather by CustomWeather, © 2014

See weather overviewHow to use our weather pages